Location: Siloam Springs
(36.1881°N, 94.5403°W)
Time: 09:05:14
(UTC-05:00)

Envisat - Pass Details

Date: 07 March 2024
Orbit: 762 x 764 km, 98.3° (Epoch: 24 April)

Event Time Altitude Azimuth Distance (km) Brightness Sun altitude
Rises 03:57:53 0° 8° (N) 3,234 6.6 -33.0°
Reaches altitude 10° 04:00:13 10° 5° (N) 2,304 5.7 -32.5°
Enters shadow 04:01:35 19° 1° (N) 1,779 5.0 -32.3°
